TimePDT,TemperatureF,Dew PointF,Humidity,Sea Level PressureIn,VisibilityMPH,Wind Direction,Wind SpeedMPH,Gust SpeedMPH,PrecipitationIn,Events,Conditions,WindDirDegrees,DateUTC
12:53 AM,54.0,48.0,80,30.41,10.0,SSW,15.0,-,N/A,,Overcast,210,2006-10-27 07:53:00
1:53 AM,54.0,48.0,80,30.40,10.0,SSW,16.1,-,N/A,,Overcast,200,2006-10-27 08:53:00
2:07 AM,53.6,48.2,82,30.39,10.0,SSW,16.1,-,N/A,,Overcast,200,2006-10-27 09:07:00
2:53 AM,53.1,48.0,83,30.41,10.0,SSW,12.7,-,N/A,,Overcast,200,2006-10-27 09:53:00
3:53 AM,54.0,48.9,83,30.40,10.0,SSW,13.8,-,N/A,,Overcast,210,2006-10-27 10:53:00
4:53 AM,54.0,48.9,83,30.40,10.0,South,13.8,-,N/A,,Overcast,190,2006-10-27 11:53:00
5:53 AM,54.0,48.9,83,30.41,10.0,SSW,9.2,-,N/A,,Overcast,200,2006-10-27 12:53:00
6:53 AM,54.0,48.9,83,30.41,10.0,SSW,11.5,-,N/A,,Overcast,200,2006-10-27 13:53:00
7:53 AM,53.1,48.9,86,30.41,10.0,SSW,12.7,-,N/A,,Overcast,200,2006-10-27 14:53:00
8:53 AM,53.1,48.0,83,30.43,10.0,SSW,12.7,-,N/A,,Overcast,200,2006-10-27 15:53:00
9:53 AM,54.0,48.0,80,30.44,10.0,South,10.4,-,N/A,,Overcast,190,2006-10-27 16:53:00
10:25 AM,53.6,48.2,82,30.42,10.0,South,12.7,-,N/A,,Mostly Cloudy,190,2006-10-27 17:25:00
10:53 AM,55.0,48.0,77,30.44,10.0,South,11.5,-,N/A,,Mostly Cloudy,180,2006-10-27 17:53:00
11:53 AM,57.9,50.0,75,30.44,10.0,SSW,9.2,-,N/A,,Mostly Cloudy,210,2006-10-27 18:53:00
12:33 PM,60.8,51.8,72,30.42,10.0,WSW,15.0,-,N/A,,Mostly Cloudy,250,2006-10-27 19:33:00
12:53 PM,59.0,50.0,72,30.44,10.0,SSW,12.7,-,N/A,,Mostly Cloudy,210,2006-10-27 19:53:00
1:53 PM,61.0,50.0,67,30.43,10.0,SW,11.5,-,N/A,,Mostly Cloudy,230,2006-10-27 20:53:00
2:53 PM,61.0,48.9,64,30.42,10.0,SW,11.5,-,N/A,,Scattered Clouds,220,2006-10-27 21:53:00
3:53 PM,62.1,48.9,62,30.40,10.0,West,8.1,-,N/A,,Scattered Clouds,270,2006-10-27 22:53:00
4:53 PM,60.1,48.0,64,30.40,10.0,West,8.1,-,N/A,,Scattered Clouds,260,2006-10-27 23:53:00
5:53 PM,57.0,48.0,72,30.39,10.0,West,4.6,-,N/A,,Scattered Clouds,280,2006-10-28 00:53:00
6:53 PM,54.0,48.0,80,30.39,10.0,West,3.5,-,N/A,,Partly Cloudy,280,2006-10-28 01:53:00
7:53 PM,55.0,46.9,74,30.38,10.0,Calm,Calm,-,N/A,,Clear,0,2006-10-28 02:53:00
8:53 PM,52.0,46.0,80,30.38,10.0,Calm,Calm,-,N/A,,Clear,0,2006-10-28 03:53:00
9:53 PM,50.0,46.0,86,30.38,10.0,South,4.6,-,N/A,,Clear,170,2006-10-28 04:53:00
10:53 PM,48.9,46.9,93,30.37,10.0,SSE,5.8,-,N/A,,Clear,160,2006-10-28 05:53:00
11:53 PM,50.0,46.9,89,30.36,10.0,SE,9.2,-,N/A,,Clear,140,2006-10-28 06:53:00